Regional Weather Roundup
Issued by NWS

Home | Current Version | Previous Version | Graphics & Text | Print | Product List | Glossary On
Versions: 1 2 3 4 5 6 7 8 9 10 11 12 13 14 15 16 17 18 19 20 21 22 23 24 25 26 27 28 29 30 31 32 33 34 35 36 37 38 39 40 41 42 43 44 45 46 47 48 49 50
734
ASUS43 KLMK 171310
RWRKY
KENTUCKY REGIONAL WEATHER ROUNDUP
NATIONAL WEATHER SERVICE LOUISVILLE KY
800 AM EST TUE JAN 17 2017

NOTE "FAIR" INDICATES FEW OR NO CLOUDS BELOW 12,000 FEET
WITH NO SIGNIFICANT WEATHER AND/OR OBSTRUCTIONS TO VISIBILITY.

KYZ001>023-026-027-061>063-070>075-171400-
WESTERN AND SOUTH CENTRAL KENTUCKY

CITY           SKY/WX    TMP DP  RH WIND       PRES   REMARKS
PADUCAH        CLEAR     51  42  71 W13       29.98R
HENDERSON      MOCLDY    52  46  82 NW13      29.95R
OWENSBORO      CLOUDY    59  57  93 W7        29.95R
HOPKINSVILLE   DRIZZLE   63  63 100 W14       29.97R
BOWLING GREEN  CLOUDY    63  60  90 S14       29.98R
GLASGOW        DRIZZLE   62  62 100 S12G17    29.98S
$$

KYZ024-025-028>034-038-045-046-053-171400-
NORTH CENTRAL KENTUCKY

CITY           SKY/WX    TMP DP  RH WIND       PRES   REMARKS
LOUISVILLE/SDF MOCLDY    62  57  83 SW12      29.92R
LOUISVILLE/LOU CLOUDY    62  57  83 SW8       29.93R
FORT KNOX      LGT RAIN  59  59 100 SW10      29.92S
$$

KYZ035>037-039>044-047>052-055>060-089>105-171400-
NORTHEAST KENTUCKY

CITY           SKY/WX    TMP DP  RH WIND       PRES   REMARKS
LEXINGTON      RAIN      58  57  97 W3        29.96R FOG
COVINGTON      CLOUDY    59  56  89 SW12      29.90S
FRANKFORT      LGT RAIN  60  56  86 S16       29.92F
$$

KYZ054-064>069-076>088-106>120-171400-
SOUTHEAST KENTUCKY

CITY           SKY/WX    TMP DP  RH WIND       PRES   REMARKS
JACKSON        LGT RAIN  56  54  93 VRB7      30.02F
LONDON         LGT RAIN  58  54  86 S8        30.04S
SOMERSET       CLOUDY    55  55 100 S7        30.03F
MIDDLESBORO    RAIN      58  55  90 S10G20    30.10S
MONTICELLO     CLOUDY    60  57  89 VRB5      30.05S
$$





USA.gov is the U.S. government's official web portal to all federal, state and local government web resources and services.